Flag for U.S.A. Weather past 2 weeks in Jersey City, New Jersey, U.S.A.

38 °F


Feels Like: 30 °F
Forecast: 34 / 46 °F
Wind: 14 mph from Northeast

Location: Newark International Airport

Current Time: Nov 29, 2015 at 10:20:10 PM

Latest Report: Nov 29, 2015 at 9:51 PM

Visibility: 10 mi

Pressure: 30.35 "Hg

Humidity: 58%

Dew point: 24 °F

Location of Jersey CityLocation

Historic Weather in Jersey City — Graph


Jersey City temperature yesterday

Maximum temperature yesterday: 63 °F (at 11:51 AM)
Minimum temperature yesterday: 44 °F (at 11:51 PM)
Average temperature yesterday: 53 °F

Past Weeks' High & Low Weather Summary

High70 °F (Nov 16, 2:51 PM)100% (Nov 19, 9:51 PM)30.82 "Hg (Nov 19, 9:51 PM)
Low27 °F (Nov 24, 1:51 AM)20% (Nov 20, 2:51 PM)29.86 "Hg (Nov 22, 4:51 AM)
Average49 °F61%30.30 "Hg
* Reported Nov 14 8:51 PM — Nov 29 8:51 PM, Jersey City, Weather by CustomWeather, © 2015

Note: Actual official high and low records may vary slightly from our data, if they occured in-between our weather recording intervals... More about our weather records


Jersey City weather history for previous 24 hours

Time TempWeatherWind HumidityBarometerVisibility
8:51 PM
Sun, Nov 29
38 °FPassing clouds.10 mph58%30.33 "Hg10 mi
7:51 PM40 °FPassing clouds.12 mph53%30.31 "Hg10 mi
6:51 PM41 °FPassing clouds.10 mph53%30.28 "Hg10 mi
5:51 PM42 °FPartly cloudy.12 mph49%30.26 "Hg10 mi
4:51 PM42 °FPassing clouds.8 mph53%30.25 "Hg10 mi
3:51 PM47 °FPartly sunny.6 mph39%30.22 "Hg10 mi
2:51 PM50 °FPartly sunny.6 mph32%30.20 "Hg10 mi
1:51 PM49 °FScattered clouds.6 mph31%30.21 "Hg10 mi
12:51 PM47 °FScattered clouds.5 mph39%30.22 "Hg10 mi
11:51 AM45 °FScattered clouds.10 mph45%30.23 "Hg10 mi
10:51 AM39 °FScattered clouds.10 mph67%30.26 "Hg10 mi
9:51 AM40 °FBroken clouds.13 mph68%30.27 "Hg10 mi
8:51 AM40 °FPartly sunny.10 mph70%30.27 "Hg10 mi
7:51 AM40 °FBroken clouds.12 mph73%30.26 "Hg10 mi
6:51 AM40 °FOvercast.8 mph73%30.24 "Hg10 mi
5:51 AM40 °FOvercast.14 mph73%30.22 "Hg10 mi
4:51 AM41 °FMostly cloudy.12 mph70%30.22 "Hg10 mi
3:51 AM41 °FMostly cloudy.13 mph80%30.20 "Hg10 mi
2:51 AM42 °FMostly cloudy.12 mph79%30.22 "Hg10 mi
1:51 AM43 °FOvercast.13 mph79%30.21 "Hg10 mi
12:51 AM43 °FMostly cloudy.7 mph82%30.21 "Hg10 mi
11:51 PM
Sat, Nov 28
44 °FOvercast.8 mph79%30.22 "Hg10 mi
10:58 PM45 °FOvercast.9 mph81%30.22 "Hg10 mi
Weather by CustomWeather, © 2015

See weather overviewHow to use our weather pages